Powrót do katalogu

COSMOS 2396

GLONASS

AktywnyNawigacjaMEO
NORAD 27618·PAYLOAD·🇷🇺 Russia

Wystrzelony Dec 25, 2002 z Baikonur Cosmodrome

Loading…

Następne Przeloty (najbliższe 24 godziny)

TLE

ŚwieżeSource: Space-Track

Epoka: Sep 10, 2026, 11:20 UTC

1 27618U 02060B   26253.47236269 -.00000036  00000-0  00000+0 0  9998
2 27618  65.3766 312.7650 0003432 176.4153 182.4255  2.13100114184421

Śledź COSMOS 2396 w czasie rzeczywistym z AllMySat

Download on the App Store